Location: Choisy
(48.7685°N, 2.4187°E)
Time: 16:12:05
(UTC+00:00)

CZ-4C DEB - Visible Passes

Search period start: 03 October 2024 00:00
Search period end: 13 October 2024 00:00
Orbit: 840 x 1345 km, 63.4° (Epoch: 03 October)

Date Brightness Start Highest point End Pass type
(mag) Time Alt. Az. Time Alt. Az. Time Alt. Az.
03 Oct ? 18:39:23 10° NW 18:44:31 24° N 18:49:59 11° ENE visible
03 Oct ? 20:30:24 10° NW 20:36:53 44° NE 20:37:07 44° NE visible
03 Oct ? 22:20:57 10° NW 22:24:15 31° NW 22:24:15 31° NW visible
04 Oct ? 17:50:10 10° NW 17:55:06 23° N 18:00:29 10° NE visible
04 Oct ? 19:41:43 10° NW 19:47:45 34° NNE 19:49:51 29° ENE visible
04 Oct ? 21:32:13 10° NW 21:36:58 49° NW 21:36:58 49° NW visible
04 Oct ? 23:23:35 10° WNW 23:24:07 12° WNW 23:24:07 12° WNW visible
05 Oct ? 18:52:54 10° NW 18:58:30 28° NNE 19:02:36 17° ENE visible
05 Oct ? 20:43:33 10° NW 20:49:44 61° NNE 20:49:44 61° NNE visible
05 Oct ? 22:34:22 10° NW 22:36:52 22° WNW 22:36:52 22° WNW visible
06 Oct ? 18:03:57 10° NW 18:09:09 24° N 18:14:51 10° ENE visible
06 Oct ? 19:54:54 10° NW 20:01:27 47° NE 20:02:31 44° ENE visible
06 Oct ? 21:45:28 10° NW 21:49:40 38° WNW 21:49:40 38° WNW visible
07 Oct ? 19:06:12 10° NW 19:12:21 36° NNE 19:15:20 26° ENE visible
07 Oct ? 20:56:42 10° NW 21:02:28 65° NW 21:02:28 65° NW visible
07 Oct ? 22:48:13 10° WNW 22:49:37 15° WNW 22:49:37 15° WNW visible
08 Oct ? 18:17:26 10° NW 18:23:07 29° NNE 18:28:11 14° ENE visible
08 Oct ? 20:08:01 10° NW 20:14:56 68° NE 20:15:20 67° ENE visible
08 Oct ? 21:58:55 10° NW 22:02:28 27° WNW 22:02:28 27° WNW visible
09 Oct ? 19:19:21 10° NW 19:25:59 49° NE 19:28:13 38° E visible
09 Oct ? 21:09:57 10° NW 21:15:22 48° W 21:15:22 48° W visible
10 Oct ? 18:30:40 10° NW 18:36:54 37° NNE 18:41:10 21° E visible
10 Oct ? 20:21:10 10° NW 20:28:12 81° SW 20:28:18 81° SW visible
10 Oct ? 22:12:52 10° WNW 22:15:28 18° W 22:15:28 18° W visible
11 Oct ? 17:41:55 10° NW 17:47:41 30° NNE 17:54:03 10° E visible
11 Oct ? 19:32:28 10° NW 19:39:25 72° NE 19:41:18 53° ESE visible
11 Oct ? 21:23:27 10° NW 21:28:27 32° W 21:28:27 32° W visible
12 Oct ? 18:43:48 10° NW 18:50:29 52° NE 18:54:21 28° E visible
12 Oct ? 20:34:26 10° NW 20:41:17 52° WSW 20:41:31 51° SW visible
12 Oct ? 22:28:41 10° W 22:28:41 10° W 22:28:41 10° W visible
